QPF
0.01 0.01 0.02 0.02 0.02 0.01 0.01 0.01 0.01 0.01 0.01 0.02 0.02 0.02 0.02 0.02 0.02 0.04 0.05 0.03 0.02 0.01 0.01 0.02 0.02 0.03 0.01 0.01 0.01 0.01 0.01 0.01 0.01 0.00 0.00 0.00 0.00 0.01 0.00 0.00 0.00 0.01 0.02
0.01 0.01 0.02 0.03 0.03 0.02 0.02 0.01 0.01 0.01 0.01 0.01 0.02 0.02 0.02 0.02 0.02 0.03 0.05 0.04 0.02 0.01 0.01 0.01 0.02 0.02 0.02 0.01 0.01 0.01 0.02 0.01 0.01 0.00 0.00 0.00 0.00 0.00 0.00 0.00 0.00 0.01 0.01
0.01 0.02 0.02 0.03 0.03 0.02 0.03 0.02 0.01 0.01 0.01 0.01 0.01 0.01 0.01 0.02 0.03 0.03 0.04 0.03 0.02 0.01 0.01 0.01 0.01 0.01 0.01 0.01 0.01 0.01 0.02 0.02 0.01 0.01 0.00 0.00 0.00 0.00 0.00 0.00 0.01 0.01 0.01
0.02 0.03 0.03 0.04 0.03 0.03 0.02 0.03 0.02 0.02 0.01 0.01 0.01 0.01 0.01 0.02 0.04 0.04 0.03 0.03 0.02 0.02 0.02 0.02 0.01 0.01 0.00 0.00 0.00 0.01 0.01 0.01 0.01 0.01 0.00 0.00 0.00 0.01 0.01 0.01 0.01 0.01 0.01
0.02 0.04 0.06 0.07 0.05 0.03 0.02 0.02 0.03 0.02 0.02 0.01 0.01 0.01 0.01 0.02 0.03 0.04 0.04 0.03 0.03 0.02 0.02 0.02 0.01 0.01 0.00 0.00 0.00 0.00 0.00 0.01 0.00 0.00 0.00 0.00 0.00 0.01 0.01 0.01 0.01 0.01 0.01
0.03 0.05 0.08 0.09 0.08 0.05 0.03 0.03 0.03 0.04 0.04 0.02 0.02 0.02 0.01 0.02 0.03 0.04 0.04 0.04 0.04 0.03 0.02 0.02 0.01 0.01 0.00 0.00 0.00 0.00 0.00 0.01 0.00 0.00 0.00 0.00 0.00 0.00 0.01 0.01 0.01 0.01 0.01
0.02 0.04 0.07 0.10 0.11 0.09 0.06 0.04 0.03 0.04 0.04 0.04 0.03 0.02 0.02 0.02 0.03 0.04 0.05 0.04 0.04 0.03 0.02 0.02 0.01 0.01 0.00 0.00 0.01 0.00 0.00 0.01 0.00 0.00 0.00 0.00 0.00 0.01 0.02 0.02 0.02 0.02 0.02
0.02 0.04 0.06 0.09 0.10 0.10 0.08 0.04 0.03 0.03 0.03 0.04 0.04 0.03 0.02 0.02 0.03 0.04 0.05 0.04 0.04 0.03 0.03 0.02 0.01 0.01 0.00 0.01 0.01 0.00 0.00 0.00 0.00 0.00 0.00 0.00 0.00 0.01 0.02 0.02 0.03 0.03 0.02
0.02 0.03 0.04 0.06 0.08 0.10 0.10 0.06 0.04 0.03 0.03 0.04 0.06 0.05 0.03 0.03 0.04 0.04 0.04 0.04 0.03 0.04 0.04 0.03 0.02 0.01 0.00 0.01 0.00 0.00 0.00 0.00 0.00 0.00 0.00 0.00 0.00 0.01 0.01 0.02 0.02 0.03 0.03
0.04 0.04 0.04 0.05 0.07 0.09 0.11 0.09 0.06 0.04 0.04 0.03 0.05 0.06 0.04 0.03 0.04 0.04 0.03 0.03 0.03 0.04 0.05 0.04 0.02 0.01 0.01 0.00 0.00 0.00 0.00 0.00 0.00 0.00 0.00 0.00 0.01 0.02 0.01 0.01 0.02 0.02 0.03
0.06 0.06 0.05 0.04 0.06 0.07 0.10 0.10 0.08 0.05 0.05 0.04 0.04 0.05 0.06 0.03 0.04 0.03 0.02 0.02 0.02 0.03 0.05 0.06 0.04 0.02 0.01 0.00 0.00 0.00 0.00 0.00 0.00 0.00 0.00 0.00 0.01 0.03 0.02 0.01 0.01 0.02 0.04
0.10 0.06 0.05 0.04 0.05 0.07 0.09 0.10 0.10 0.07 0.05 0.05 0.05 0.04 0.05 0.03 0.03 0.03 0.03 0.02 0.02 0.02 0.05 0.06 0.06 0.04 0.02 0.01 0.00 0.00 0.00 0.00 0.00 0.00 0.00 0.00 0.01 0.02 0.02 0.02 0.01 0.02 0.03
0.13 0.07 0.05 0.04 0.05 0.07 0.09 0.10 0.10 0.08 0.06 0.05 0.05 0.05 0.05 0.05 0.03 0.03 0.03 0.03 0.02 0.02 0.03 0.05 0.06 0.05 0.02 0.01 0.00 0.00 0.00 0.00 0.00 0.00 0.00 0.00 0.01 0.02 0.02 0.01 0.01 0.02 0.03
0.15 0.10 0.05 0.04 0.04 0.06 0.08 0.11 0.12 0.10 0.08 0.06 0.05 0.04 0.05 0.06 0.04 0.02 0.02 0.02 0.02 0.02 0.03 0.04 0.04 0.03 0.02 0.01 0.01 0.01 0.00 0.00 0.00 0.00 0.01 0.01 0.01 0.02 0.03 0.02 0.02 0.01 0.02
0.16 0.12 0.08 0.05 0.05 0.05 0.07 0.10 0.12 0.13 0.09 0.07 0.06 0.04 0.04 0.04 0.04 0.03 0.02 0.01 0.01 0.02 0.03 0.04 0.04 0.04 0.02 0.01 0.01 0.01 0.01 0.01 0.00 0.00 0.01 0.01 0.02 0.02 0.02 0.03 0.03 0.02 0.03
0.18 0.16 0.13 0.08 0.06 0.05 0.06 0.08 0.11 0.12 0.12 0.09 0.08 0.06 0.03 0.03 0.04 0.04 0.02 0.01 0.01 0.01 0.03 0.04 0.04 0.05 0.03 0.02 0.01 0.00 0.00 0.00 0.00 0.00 0.01 0.01 0.01 0.01 0.01 0.02 0.03 0.03 0.04
0.15 0.19 0.18 0.11 0.08 0.07 0.07 0.07 0.09 0.11 0.13 0.13 0.09 0.08 0.06 0.04 0.04 0.04 0.04 0.02 0.01 0.01 0.02 0.03 0.04 0.05 0.04 0.03 0.02 0.01 0.01 0.00 0.00 0.00 0.00 0.00 0.00 0.01 0.01 0.01 0.02 0.02 0.03
0.12 0.17 0.16 0.10 0.07 0.08 0.07 0.07 0.07 0.10 0.12 0.13 0.12 0.10 0.10 0.05 0.04 0.03 0.03 0.03 0.02 0.02 0.02 0.02 0.04 0.04 0.03 0.03 0.02 0.02 0.02 0.01 0.01 0.01 0.01 0.01 0.01 0.01 0.01 0.01 0.01 0.02 0.02
0.09 0.15 0.13 0.09 0.06 0.06 0.08 0.08 0.08 0.10 0.12 0.11 0.13 0.12 0.11 0.09 0.04 0.03 0.02 0.03 0.03 0.02 0.02 0.03 0.03 0.04 0.03 0.02 0.02 0.02 0.02 0.01 0.01 0.01 0.01 0.01 0.02 0.01 0.01 0.01 0.01 0.02 0.02
0.06 0.11 0.16 0.11 0.06 0.04 0.05 0.08 0.10 0.12 0.13 0.13 0.14 0.14 0.12 0.10 0.06 0.04 0.03 0.03 0.04 0.03 0.03 0.04 0.04 0.05 0.04 0.02 0.02 0.02 0.02 0.01 0.01 0.01 0.01 0.01 0.02 0.03 0.03 0.02 0.02 0.02 0.02
0.05 0.08 0.13 0.15 0.07 0.04 0.04 0.06 0.09 0.11 0.13 0.15 0.16 0.16 0.14 0.12 0.08 0.05 0.03 0.03 0.04 0.04 0.04 0.03 0.04 0.05 0.04 0.03 0.02 0.03 0.03 0.03 0.01 0.01 0.01 0.01 0.01 0.02 0.03 0.04 0.04 0.04 0.02
0.05 0.06 0.08 0.12 0.08 0.04 0.03 0.05 0.08 0.10 0.12 0.14 0.18 0.19 0.14 0.13 0.08 0.06 0.05 0.03 0.03 0.04 0.04 0.04 0.04 0.05 0.05 0.04 0.03 0.03 0.04 0.04 0.02 0.01 0.01 0.01 0.01 0.01 0.02 0.03 0.03 0.03 0.03
0.06 0.08 0.08 0.08 0.08 0.04 0.04 0.05 0.08 0.09 0.09 0.12 0.15 0.17 0.17 0.14 0.08 0.05 0.04 0.05 0.04 0.04 0.04 0.03 0.03 0.05 0.05 0.04 0.03 0.04 0.04 0.04 0.03 0.02 0.01 0.01 0.01 0.01 0.01 0.01 0.02 0.03 0.02
0.06 0.06 0.08 0.09 0.08 0.05 0.05 0.05 0.08 0.09 0.08 0.08 0.11 0.14 0.16 0.16 0.12 0.08 0.06 0.05 0.07 0.06 0.05 0.05 0.04 0.04 0.05 0.04 0.03 0.03 0.04 0.04 0.03 0.02 0.01 0.01 0.01 0.01 0.02 0.02 0.02 0.03 0.03
0.05 0.06 0.06 0.08 0.09 0.07 0.05 0.04 0.06 0.09 0.09 0.08 0.10 0.13 0.15 0.14 0.14 0.13 0.11 0.08 0.07 0.09 0.08 0.06 0.06 0.05 0.05 0.03 0.03 0.03 0.02 0.02 0.02 0.02 0.02 0.02 0.01 0.01 0.01 0.01 0.02 0.03 0.03
0.03 0.04 0.04 0.03 0.05 0.07 0.06 0.05 0.04 0.06 0.08 0.08 0.10 0.12 0.14 0.14 0.13 0.14 0.13 0.09 0.08 0.08 0.10 0.09 0.08 0.07 0.06 0.04 0.02 0.02 0.02 0.02 0.02 0.01 0.01 0.02 0.02 0.01 0.01 0.01 0.01 0.02 0.02
MSLP
1015.01 1014.84 1014.81 1014.92 1015.15 1015.46 1015.78 1016.08 1016.31 1016.47 1016.56 1016.62 1016.69 1016.79 1016.94 1017.14 1017.37 1017.61 1017.81 1017.97 1018.07 1018.13 1018.16 1018.20 1018.25 1018.34 1018.45 1018.57 1018.69 1018.78 1018.83 1018.85 1018.84 1018.82 1018.79 1018.77 1018.76 1018.74 1018.72 1018.68 1018.61 1018.53 1018.45
1014.57 1014.47 1014.50 1014.68 1014.98 1015.35 1015.73 1016.07 1016.34 1016.53 1016.66 1016.75 1016.85 1016.98 1017.17 1017.40 1017.65 1017.90 1018.11 1018.27 1018.38 1018.44 1018.47 1018.50 1018.54 1018.60 1018.68 1018.76 1018.83 1018.88 1018.90 1018.89 1018.88 1018.86 1018.85 1018.85 1018.85 1018.84 1018.81 1018.76 1018.69 1018.60 1018.52
1014.10 1014.06 1014.17 1014.43 1014.80 1015.24 1015.68 1016.08 1016.39 1016.61 1016.77 1016.89 1017.01 1017.17 1017.37 1017.60 1017.86 1018.10 1018.31 1018.47 1018.57 1018.62 1018.65 1018.68 1018.71 1018.75 1018.80 1018.85 1018.88 1018.90 1018.90 1018.89 1018.89 1018.88 1018.89 1018.90 1018.91 1018.90 1018.87 1018.81 1018.73 1018.64 1018.56
1013.68 1013.71 1013.90 1014.24 1014.68 1015.19 1015.68 1016.11 1016.45 1016.70 1016.88 1017.01 1017.15 1017.31 1017.51 1017.74 1017.98 1018.21 1018.40 1018.54 1018.63 1018.69 1018.71 1018.73 1018.76 1018.79 1018.82 1018.86 1018.88 1018.89 1018.88 1018.88 1018.88 1018.89 1018.91 1018.93 1018.94 1018.92 1018.87 1018.80 1018.71 1018.62 1018.55
1013.39 1013.49 1013.74 1014.15 1014.65 1015.20 1015.72 1016.18 1016.53 1016.79 1016.97 1017.10 1017.24 1017.40 1017.59 1017.81 1018.03 1018.24 1018.41 1018.54 1018.62 1018.67 1018.70 1018.72 1018.75 1018.78 1018.81 1018.84 1018.86 1018.87 1018.87 1018.88 1018.89 1018.91 1018.93 1018.94 1018.94 1018.90 1018.84 1018.74 1018.64 1018.55 1018.49
1013.25 1013.41 1013.72 1014.17 1014.71 1015.28 1015.81 1016.26 1016.60 1016.85 1017.03 1017.16 1017.30 1017.46 1017.65 1017.85 1018.07 1018.26 1018.42 1018.53 1018.61 1018.66 1018.69 1018.72 1018.75 1018.79 1018.82 1018.85 1018.87 1018.88 1018.89 1018.90 1018.92 1018.93 1018.94 1018.94 1018.91 1018.84 1018.74 1018.63 1018.52 1018.43 1018.37
1013.25 1013.45 1013.80 1014.29 1014.84 1015.40 1015.91 1016.34 1016.66 1016.89 1017.06 1017.20 1017.35 1017.52 1017.72 1017.93 1018.14 1018.33 1018.48 1018.59 1018.66 1018.72 1018.75 1018.79 1018.83 1018.87 1018.90 1018.93 1018.94 1018.95 1018.95 1018.96 1018.96 1018.96 1018.95 1018.91 1018.85 1018.74 1018.61 1018.48 1018.36 1018.27 1018.23
1013.34 1013.58 1013.95 1014.45 1014.99 1015.53 1016.01 1016.40 1016.70 1016.92 1017.10 1017.26 1017.43 1017.63 1017.85 1018.09 1018.31 1018.50 1018.65 1018.76 1018.84 1018.89 1018.93 1018.97 1019.01 1019.04 1019.07 1019.08 1019.08 1019.08 1019.06 1019.04 1019.02 1019.00 1018.95 1018.87 1018.77 1018.63 1018.47 1018.32 1018.19 1018.11 1018.08
1013.46 1013.72 1014.12 1014.60 1015.13 1015.63 1016.08 1016.44 1016.73 1016.96 1017.15 1017.35 1017.58 1017.82 1018.09 1018.35 1018.60 1018.80 1018.95 1019.06 1019.13 1019.18 1019.22 1019.25 1019.29 1019.31 1019.31 1019.31 1019.28 1019.24 1019.19 1019.14 1019.09 1019.02 1018.94 1018.83 1018.69 1018.53 1018.35 1018.19 1018.06 1017.98 1017.97
1013.55 1013.84 1014.24 1014.72 1015.22 1015.70 1016.12 1016.47 1016.76 1017.01 1017.26 1017.52 1017.80 1018.11 1018.42 1018.72 1018.98 1019.19 1019.34 1019.44 1019.50 1019.55 1019.58 1019.60 1019.62 1019.62 1019.60 1019.56 1019.50 1019.42 1019.33 1019.24 1019.15 1019.05 1018.94 1018.81 1018.65 1018.48 1018.30 1018.13 1018.01 1017.93 1017.92
1013.60 1013.92 1014.33 1014.81 1015.29 1015.74 1016.15 1016.50 1016.81 1017.11 1017.41 1017.74 1018.10 1018.47 1018.82 1019.15 1019.42 1019.62 1019.76 1019.84 1019.89 1019.92 1019.94 1019.96 1019.96 1019.94 1019.90 1019.83 1019.72 1019.60 1019.47 1019.34 1019.22 1019.09 1018.97 1018.83 1018.68 1018.51 1018.34 1018.18 1018.06 1017.99 1017.96
1013.62 1013.96 1014.39 1014.86 1015.33 1015.78 1016.18 1016.55 1016.90 1017.25 1017.63 1018.03 1018.44 1018.86 1019.25 1019.58 1019.84 1020.03 1020.14 1020.20 1020.23 1020.25 1020.27 1020.27 1020.27 1020.24 1020.17 1020.07 1019.93 1019.77 1019.60 1019.44 1019.29 1019.16 1019.03 1018.90 1018.77 1018.63 1018.49 1018.35 1018.24 1018.15 1018.11
1013.63 1014.01 1014.45 1014.93 1015.39 1015.84 1016.25 1016.64 1017.03 1017.44 1017.88 1018.33 1018.80 1019.25 1019.64 1019.97 1020.20 1020.36 1020.44 1020.48 1020.49 1020.50 1020.52 1020.53 1020.53 1020.49 1020.41 1020.29 1020.12 1019.93 1019.73 1019.54 1019.38 1019.25 1019.14 1019.04 1018.94 1018.84 1018.73 1018.61 1018.51 1018.42 1018.34
1013.69 1014.09 1014.55 1015.02 1015.49 1015.93 1016.36 1016.77 1017.21 1017.66 1018.14 1018.64 1019.13 1019.58 1019.97 1020.27 1020.47 1020.58 1020.64 1020.65 1020.66 1020.68 1020.70 1020.73 1020.74 1020.71 1020.63 1020.49 1020.30 1020.08 1019.86 1019.66 1019.49 1019.37 1019.28 1019.22 1019.16 1019.10 1019.03 1018.94 1018.85 1018.74 1018.63
1013.79 1014.22 1014.69 1015.16 1015.62 1016.06 1016.50 1016.95 1017.41 1017.90 1018.41 1018.92 1019.42 1019.85 1020.21 1020.47 1020.63 1020.71 1020.74 1020.75 1020.76 1020.79 1020.84 1020.90 1020.93 1020.91 1020.83 1020.69 1020.48 1020.25 1020.01 1019.80 1019.63 1019.52 1019.45 1019.42 1019.41 1019.39 1019.36 1019.30 1019.21 1019.09 1018.94
1013.94 1014.39 1014.85 1015.32 1015.78 1016.23 1016.68 1017.14 1017.62 1018.13 1018.66 1019.17 1019.65 1020.06 1020.37 1020.59 1020.71 1020.77 1020.79 1020.80 1020.83 1020.89 1020.98 1021.06 1021.12 1021.12 1021.05 1020.90 1020.69 1020.44 1020.18 1019.96 1019.79 1019.68 1019.64 1019.63 1019.65 1019.67 1019.66 1019.62 1019.54 1019.41 1019.24
1014.10 1014.55 1015.02 1015.48 1015.94 1016.40 1016.86 1017.34 1017.84 1018.36 1018.89 1019.39 1019.84 1020.21 1020.48 1020.66 1020.76 1020.80 1020.82 1020.85 1020.91 1021.01 1021.13 1021.25 1021.33 1021.35 1021.29 1021.13 1020.91 1020.65 1020.38 1020.15 1019.97 1019.87 1019.83 1019.84 1019.87 1019.91 1019.92 1019.89 1019.82 1019.69 1019.52
1014.21 1014.67 1015.14 1015.61 1016.07 1016.55 1017.03 1017.53 1018.05 1018.57 1019.09 1019.58 1019.99 1020.33 1020.57 1020.72 1020.79 1020.83 1020.87 1020.93 1021.02 1021.16 1021.32 1021.47 1021.57 1021.60 1021.54 1021.38 1021.16 1020.89 1020.62 1020.38 1020.19 1020.08 1020.04 1020.04 1020.08 1020.12 1020.13 1020.11 1020.04 1019.92 1019.75
1014.25 1014.71 1015.18 1015.66 1016.15 1016.64 1017.16 1017.69 1018.23 1018.77 1019.28 1019.75 1020.14 1020.44 1020.64 1020.77 1020.84 1020.89 1020.94 1021.03 1021.16 1021.33 1021.51 1021.68 1021.80 1021.84 1021.79 1021.64 1021.42 1021.16 1020.89 1020.65 1020.46 1020.34 1020.28 1020.27 1020.28 1020.31 1020.31 1020.28 1020.21 1020.10 1019.95
1014.20 1014.66 1015.14 1015.64 1016.15 1016.69 1017.24 1017.81 1018.38 1018.94 1019.45 1019.90 1020.26 1020.54 1020.72 1020.83 1020.89 1020.95 1021.02 1021.13 1021.29 1021.48 1021.69 1021.87 1022.01 1022.06 1022.02 1021.89 1021.69 1021.45 1021.20 1020.97 1020.78 1020.65 1020.57 1020.53 1020.52 1020.51 1020.48 1020.44 1020.36 1020.25 1020.12
1014.08 1014.54 1015.03 1015.55 1016.10 1016.68 1017.28 1017.90 1018.50 1019.08 1019.60 1020.03 1020.37 1020.62 1020.78 1020.87 1020.93 1020.99 1021.08 1021.21 1021.39 1021.60 1021.81 1022.01 1022.16 1022.23 1022.22 1022.12 1021.97 1021.77 1021.55 1021.35 1021.18 1021.04 1020.94 1020.86 1020.80 1020.74 1020.67 1020.59 1020.49 1020.39 1020.27
1013.93 1014.40 1014.89 1015.43 1016.02 1016.64 1017.29 1017.95 1018.59 1019.18 1019.70 1020.13 1020.45 1020.67 1020.81 1020.88 1020.94 1021.00 1021.10 1021.24 1021.42 1021.64 1021.87 1022.07 1022.24 1022.34 1022.37 1022.33 1022.23 1022.09 1021.94 1021.78 1021.63 1021.50 1021.37 1021.25 1021.13 1021.01 1020.88 1020.75 1020.62 1020.50 1020.38
1013.82 1014.28 1014.78 1015.33 1015.94 1016.60 1017.28 1017.97 1018.63 1019.24 1019.75 1020.16 1020.46 1020.66 1020.78 1020.85 1020.90 1020.96 1021.06 1021.20 1021.39 1021.61 1021.84 1022.06 1022.25 1022.39 1022.47 1022.50 1022.48 1022.42 1022.34 1022.24 1022.12 1021.99 1021.84 1021.68 1021.50 1021.30 1021.11 1020.91 1020.73 1020.58 1020.44
1013.81 1014.26 1014.75 1015.29 1015.91 1016.57 1017.27 1017.97 1018.63 1019.23 1019.73 1020.12 1020.40 1020.58 1020.69 1020.75 1020.80 1020.86 1020.96 1021.11 1021.30 1021.52 1021.76 1021.99 1022.21 1022.39 1022.53 1022.63 1022.69 1022.72 1022.71 1022.67 1022.59 1022.47 1022.30 1022.09 1021.85 1021.58 1021.31 1021.05 1020.81 1020.61 1020.45
1013.94 1014.35 1014.82 1015.34 1015.93 1016.58 1017.26 1017.94 1018.59 1019.16 1019.64 1020.01 1020.27 1020.44 1020.54 1020.60 1020.66 1020.73 1020.84 1021.00 1021.19 1021.41 1021.65 1021.89 1022.13 1022.35 1022.55 1022.72 1022.85 1022.96 1023.02 1023.03 1022.98 1022.87 1022.69 1022.44 1022.14 1021.81 1021.47 1021.15 1020.85 1020.60 1020.39
1014.20 1014.58 1015.00 1015.48 1016.02 1016.62 1017.26 1017.90 1018.50 1019.04 1019.48 1019.83 1020.07 1020.24 1020.35 1020.43 1020.50 1020.60 1020.73 1020.89 1021.08 1021.31 1021.55 1021.80 1022.05 1022.29 1022.53 1022.75 1022.94 1023.11 1023.22 1023.28 1023.26 1023.15 1022.95 1022.68 1022.34 1021.96 1021.57 1021.18 1020.84 1020.54 1020.29
Thickness
5724 5727 5728 5728 5728 5728 5729 5729 5730 5730 5731 5731 5732 5732 5732 5732 5732 5732 5732 5732 5732 5732 5732 5731 5731 5730 5730 5730 5729 5728 5727 5727 5726 5726 5725 5724 5723 5723 5722 5721 5721 5720 5719
5724 5724 5725 5725 5725 5725 5725 5726 5726 5727 5727 5728 5728 5729 5729 5729 5729 5729 5729 5729 5729 5729 5728 5728 5728 5727 5727 5726 5726 5725 5724 5724 5723 5722 5722 5721 5721 5720 5719 5718 5718 5717 5716
5721 5721 5721 5721 5721 5721 5721 5722 5722 5723 5723 5724 5724 5725 5725 5726 5726 5726 5726 5726 5726 5726 5725 5725 5724 5724 5723 5723 5722 5722 5721 5721 5720 5719 5719 5718 5718 5717 5716 5715 5715 5714 5713
5716 5716 5716 5716 5716 5717 5717 5717 5718 5718 5719 5720 5720 5721 5722 5722 5722 5722 5722 5722 5722 5722 5722 5721 5721 5720 5719 5719 5718 5718 5718 5717 5716 5716 5716 5715 5715 5714 5713 5712 5712 5711 5710
5709 5710 5710 5711 5711 5712 5712 5712 5713 5714 5714 5715 5716 5717 5718 5718 5718 5718 5719 5718 5718 5718 5718 5717 5717 5716 5716 5715 5715 5714 5714 5713 5713 5713 5713 5712 5712 5711 5710 5709 5708 5707 5706
5702 5703 5704 5705 5705 5706 5707 5708 5708 5709 5710 5711 5712 5713 5713 5714 5714 5714 5714 5714 5714 5714 5714 5714 5713 5712 5712 5712 5711 5711 5710 5710 5709 5709 5709 5709 5708 5708 5707 5706 5705 5704 5703
5695 5696 5697 5698 5699 5700 5700 5702 5704 5705 5705 5706 5707 5708 5709 5709 5710 5710 5710 5710 5710 5710 5710 5709 5709 5708 5708 5708 5707 5707 5706 5706 5706 5706 5705 5705 5705 5704 5704 5703 5702 5701 5700
5687 5688 5690 5690 5692 5693 5694 5696 5699 5700 5701 5702 5703 5704 5704 5705 5705 5706 5706 5706 5705 5705 5705 5705 5704 5704 5704 5704 5703 5703 5702 5702 5702 5702 5701 5701 5701 5701 5701 5700 5699 5698 5697
5680 5681 5682 5684 5685 5687 5688 5690 5693 5695 5696 5697 5698 5699 5700 5700 5701 5701 5701 5701 5701 5701 5700 5700 5700 5700 5699 5699 5699 5699 5698 5698 5698 5698 5698 5697 5697 5697 5697 5697 5696 5695 5694
5672 5674 5676 5677 5679 5681 5683 5686 5687 5689 5691 5692 5694 5695 5695 5695 5696 5696 5697 5697 5696 5696 5696 5696 5695 5695 5695 5695 5695 5694 5694 5694 5694 5694 5694 5694 5694 5694 5693 5693 5692 5691 5690
5664 5666 5669 5671 5673 5675 5677 5680 5682 5683 5685 5687 5689 5689 5690 5690 5691 5692 5692 5692 5692 5691 5691 5691 5691 5691 5690 5690 5690 5690 5690 5690 5690 5690 5690 5690 5690 5690 5689 5689 5688 5687 5686
5657 5660 5663 5664 5667 5669 5671 5674 5676 5678 5680 5682 5684 5684 5685 5686 5687 5687 5687 5687 5687 5687 5686 5686 5686 5686 5686 5686 5686 5686 5686 5686 5686 5686 5686 5686 5686 5686 5685 5685 5684 5683 5682
5652 5655 5657 5659 5661 5664 5666 5669 5671 5673 5675 5676 5678 5679 5680 5681 5681 5682 5682 5682 5682 5682 5682 5682 5681 5681 5681 5681 5681 5681 5681 5681 5681 5681 5681 5681 5681 5681 5681 5680 5679 5678 5677
5646 5649 5652 5654 5656 5658 5661 5664 5666 5668 5669 5671 5672 5674 5675 5675 5676 5677 5677 5677 5677 5677 5677 5677 5676 5676 5676 5676 5676 5676 5676 5676 5676 5677 5677 5676 5676 5676 5676 5676 5675 5674 5672
5641 5643 5646 5649 5651 5653 5656 5658 5661 5663 5664 5666 5667 5668 5670 5671 5671 5672 5672 5671 5672 5672 5672 5672 5671 5671 5671 5671 5671 5672 5672 5672 5672 5672 5672 5672 5671 5671 5671 5671 5670 5669 5668
5635 5637 5640 5642 5645 5648 5650 5652 5654 5657 5659 5660 5661 5663 5665 5666 5666 5666 5666 5666 5666 5667 5667 5666 5666 5666 5666 5667 5667 5667 5667 5667 5667 5667 5667 5667 5666 5666 5666 5665 5665 5664 5663
5630 5631 5633 5636 5640 5643 5645 5647 5649 5651 5652 5655 5656 5657 5659 5661 5661 5660 5660 5661 5661 5661 5661 5661 5661 5661 5661 5661 5661 5661 5661 5662 5662 5662 5662 5661 5661 5660 5660 5659 5659 5658 5657
5624 5626 5629 5631 5633 5636 5639 5641 5643 5645 5646 5648 5650 5651 5653 5655 5655 5654 5654 5655 5655 5656 5656 5655 5655 5655 5655 5655 5655 5655 5656 5656 5656 5656 5656 5656 5655 5654 5654 5653 5653 5652 5651
5621 5623 5625 5626 5627 5629 5632 5634 5637 5638 5640 5642 5643 5644 5646 5647 5648 5648 5648 5648 5649 5649 5649 5650 5649 5649 5649 5649 5649 5649 5650 5650 5650 5650 5650 5649 5649 5648 5647 5647 5646 5645 5645
5616 5619 5620 5620 5622 5624 5626 5628 5630 5632 5634 5636 5637 5639 5639 5640 5641 5642 5642 5642 5643 5643 5642 5643 5642 5642 5643 5643 5643 5642 5642 5642 5643 5643 5643 5642 5642 5641 5641 5640 5639 5639 5638
5612 5613 5614 5615 5617 5619 5620 5622 5623 5625 5628 5629 5630 5633 5634 5634 5634 5635 5635 5634 5635 5635 5636 5636 5636 5635 5635 5635 5634 5633 5633 5634 5635 5635 5635 5635 5635 5634 5634 5633 5633 5632 5631
5607 5608 5611 5611 5612 5613 5615 5617 5618 5619 5620 5622 5624 5626 5627 5627 5627 5628 5628 5627 5628 5628 5628 5629 5629 5628 5628 5628 5627 5625 5623 5623 5625 5627 5627 5627 5627 5626 5626 5626 5626 5625 5624
5602 5603 5605 5605 5606 5607 5609 5610 5610 5612 5612 5614 5616 5618 5619 5619 5620 5621 5621 5621 5621 5621 5621 5622 5623 5622 5621 5620 5621 5620 5617 5615 5614 5618 5618 5619 5619 5619 5619 5619 5619 5617 5617
5595 5597 5598 5600 5601 5602 5603 5604 5605 5605 5606 5608 5609 5611 5611 5612 5613 5613 5613 5614 5614 5614 5615 5615 5617 5616 5615 5613 5612 5613 5612 5612 5609 5608 5610 5611 5612 5612 5611 5611 5611 5610 5610
5589 5590 5591 5593 5594 5595 5597 5598 5598 5598 5599 5600 5601 5601 5602 5604 5605 5605 5606 5606 5606 5606 5607 5608 5608 5609 5608 5607 5606 5604 5603 5602 5602 5601 5601 5601 5603 5604 5603 5603 5603 5602 5602
5581 5582 5583 5585 5587 5589 5590 5590 5591 5591 5591 5592 5592 5592 5593 5593 5594 5595 5597 5597 5598 5599 5600 5600 5601 5601 5601 5600 5599 5598 5597 5596 5594 5593 5592 5591 5592 5594 5594 5594 5594 5594 5594